Regional Weather Roundup
Issued by NWS

Home | Current Version | Previous Version | Text Only | Print | Product List | Glossary Off
Versions: 1 2 3 4 5 6 7 8 9 10 11 12 13 14 15 16 17 18 19 20 21 22 23 24 25 26 27 28 29 30 31 32 33 34 35 36 37 38 39 40 41 42 43 44 45 46 47 48 49 50

000
ASUS43 KMKX 301100
RWRWI

WISCONSIN REGIONAL WEATHER ROUNDUP
NATIONAL WEATHER SERVICE MILWAUKEE/SULLIVAN WI
600 AM CDT THU JUL 30 2015

NOTE: "FAIR" INDICATES FEW OR NO CLOUDS BELOW 12,000 FEET WITH NO
SIGNIFICANT WEATHER AND/OR OBSTRUCTIONS TO VISIBILITY.

WIZ001-002-006>008-014>016-023>028-301200-
NORTHWEST WISCONSIN

CITY           SKY/WX    TMP DP  RH WIND       PRES   REMARKS
SUPERIOR ARPT  CLEAR     61  56  83 W9        29.92S
ASHLAND        CLEAR     62  56  80 SW8       29.91R
HAYWARD        CLEAR     57  53  86 CALM      29.96R
SIREN          CLEAR     63  55  75 W7        29.97S
CUMBERLAND     CLEAR     59  54  82 CALM      29.99R
RICE LAKE      CLEAR     60  55  83 W5        30.00R
CHETEK         CLEAR     61  56  83 SW3       29.99R
LADYSMITH      CLEAR     61  55  81 SW5       29.99R
EAU CLAIRE     NOT AVBL
MENOMONIE      CLEAR     65  55  70 SW10      30.00S
NEW RICHMOND   CLEAR     62  54  76 SW6       30.01R
OSCEOLA        CLEAR     64  56  75 W8        30.02S
$$

WIZ003>005-009-010-017-018-301200-
NORTH CENTRAL WISCONSIN

CITY           SKY/WX    TMP DP  RH WIND       PRES   REMARKS
MANITOWISH WTR CLEAR     61  55  78 W12G18    29.92R
ARBOR VITAE    CLEAR     62  55  77 W7        29.92S
WOODRUFF       CLEAR     62  55  77 W7        29.92S
RHINELANDER    CLEAR     60  53  77 W10       29.94R
EAGLE RIVER    CLEAR     62  51  66 W10       29.91R
LAND O LAKES   CLEAR     61  52  73 W7        29.91R
PHILLIPS       CLEAR     59  55  85 W5        29.95R
TOMAHAWK       CLEAR     61  54  76 W7        29.95S
MEDFORD        CLEAR     59  55  87 W7        29.98R
MERRILL        NOT AVBL
$$

WIZ029-030-035-036-043>047-301200-
CENTRAL WISCONSIN

CITY           SKY/WX    TMP DP  RH WIND       PRES   REMARKS
WAUSAU         CLEAR     64  55  72 NW9       29.95R
MOSINEE        CLEAR     61  55  82 W8        29.99R
MARSHFIELD     CLEAR     60  53  77 W7        29.99R
STEVENS POINT  CLEAR     62  54  74 W7        29.98S
WAUPACA        CLEAR     66  55  67 W8        29.97R
WAUTOMA        NOT AVBL
WISC RAPIDS    CLEAR     63  53  70 W7        30.00R
CAMP DOUGLAS   NOT AVBL
$$

WIZ011>013-019>022-031-037>040-048>050-301200-
NORTHEAST WISCONSIN

CITY           SKY/WX    TMP DP  RH WIND       PRES   REMARKS
ANTIGO         CLEAR     59  55  84 W9        29.95R
SHAWANO        CLEAR     65  55  70 W9        29.93R
OCONTO         CLEAR     62  57  82 W7        29.89S
STURGEON BAY   CLEAR     66  54  63 W13G20    29.91S
GREEN BAY      CLEAR     65  55  70 W12       29.93R
MANITOWOC      NOT AVBL
APPLETON       CLEAR     61  54  77 W6        29.96S
CLINTONVILLE   CLEAR     63  54  72 W8        29.94S
OSHKOSH        CLEAR     66  54  65 W7        29.97R
$$

WIZ032>034-041-042-053>061-301200-
SOUTHWEST WISCONSIN

CITY           SKY/WX    TMP DP  RH WIND       PRES   REMARKS
LA CROSSE      CLEAR     67  55  65 CALM      30.03R
SPARTA         CLEAR     60  54  79 W3        30.03R
VIROQUA        CLEAR     59  56  90 SW6       30.06R
BOSCOBEL       CLEAR     60  57  89 SW5       30.06R
PRAIRIE DU CHI CLEAR     64  56  77 W8        30.06S
PLATTEVILLE    CLEAR     60  58  92 W7        30.07S
$$

WIZ056-057-062-063-064-067-068-301200-
SOUTH CENTRAL WISCONSIN

CITY           SKY/WX    TMP DP  RH WIND       PRES   REMARKS
REEDSBURG      CLEAR     63  56  78 W5        30.02S
BARABOO/DELLS  CLEAR     61  54  77 W5        30.02S
LONE ROCK      NOT AVBL
MINERAL POINT  CLEAR     61  57  88 W6        30.06S
MADISON        CLEAR     66  56  70 W6        30.02R
MIDDLETON      CLEAR     60  57  88 CALM      30.04R
WATERTOWN      CLEAR     62  59  88 W5        30.01R
MONROE         CLEAR     63  57  82 W14       30.05S
JANESVILLE     CLEAR     63  57  82 W6        30.04R
$$

WIZ051-052-058>065-066-070>072-301200-
SOUTHEAST WISCONSIN

CITY           SKY/WX    TMP DP  RH WIND       PRES   REMARKS
MILWAUKEE      CLEAR     67  54  63 W7        29.99R
WAUKESHA       CLEAR     63  54  72 W8        30.02R
MILWAUKEE/TIMM CLEAR     64  52  63 W8        30.00R
RACINE         CLEAR     64  55  72 W7        30.02R
BURLINGTON     CLEAR     60  54  80 W3        30.01S
KENOSHA        CLEAR     61  55  81 W8        30.01S
FOND DU LAC    CLEAR     64  55  72 W9        29.98R
SHEBOYGAN      CLEAR     66  55  67 W12       29.96R
WEST BEND      CLEAR     64  52  63 W9        29.99R
JUNEAU         CLEAR     57  54  90 W6        30.01S
$$

LSZ147-162-301200-
LAKE SUPERIOR

STATION/POSITION TIME  TEMP    WIND        PRES    WAVE
                       AIR SEA DIR/SP/G            HT/PER
                 (UTC) (F)     (DEG/KT/KT) (MB)    (FT/S)
W MID LAKE BUOY  0950   62 54  260/ 23/ 27 1007.3R   5/ 5
DEVILS ISLAND    1000   63     250/ 22/ 26 1010.4R
PORT WING        1000   68     240/ 14/ 26 1012.5
SAXON HARBOR     1000   68                 1011.5R
$$

LMZ867-665-643>646-301200-
LAKE MICHIGAN

STATION/POSITION TIME  TEMP    WIND        PRES    WAVE
                       AIR SEA DIR/SP/G            HT/PER
                 (UTC) (F)     (DEG/KT/KT) (MB)    (FT/S)
CHAMBERS ISLAND  1000   67     220/  8/ 15 1010.8S
S GREEN BAY BUOY 1000   65 65  240/ 12/ 16 1013.5R
N MID LAKE BUOY  0950   71 69  260/ 19/ 23 1009.0R   3/ 4
NORTHPORT PIER   1000   70     250/  7/ 13 1010.5R
SISTER BAY       1014   70     320/ 21/ 28   N/A
ALGOMA LAKESHORE 1012          240/  7/ 12   N/A
SHEBOYGAN LAKESH 1000   70     260/ 11/ 14 1013.9R
PORT WASHINGTON  1000   69     280/  7/  9 1014.9S
ATWATER BUOY     1000   69     260/ 10/ 14 1016.4R
MILWAUKEE LAKESH 1000   70     270/  8/ 11   N/A
KENOSHA   LAKESH 1000   68     270/ 10/ 12 1015.6R
$$

TC  - TEMPERATURE IN CELSIUS
VSB - VISIBILITY IN STATUTE MILES
WCI - WIND CHILL INDEX
HX  - HEAT INDEX




USA.gov is the U.S. government's official web portal to all federal, state and local government web resources and services.